SWA1155 KLAX-KBWI

Flight info

Callsign SWA1155
Flight time 4h 33m
Altitude 35000
Route DOTSS2 CLEEE PKE HIDAT KA27O ZUN ABQ OTO ACH TCC/N0437F370 KK36A SGF FAM IIU ZIEBR SITTR CJAAE RAVNN8
Aircraft B737/M-SADE2E3GIJ4RWZ/LB1D1

Departure

Time 2026-05-07 18:28
Airport Los Angeles International Airport (KLAX)

Arrival

Time 2026-05-07 23:01
Airport Baltimore/Washington International Thurgood Marshall Airport (KBWI)
Time Latitude Longitude Altitude Speed Heading
2026-05-07 18:04 33.94694 -118.40073 118 ft 0 kts 264°
2026-05-07 18:21 33.94695 -118.40057 118 ft 2 kts 263°
2026-05-07 18:21 33.94697 -118.40038 118 ft 1 kts 271°
2026-05-07 18:22 33.94691 -118.40023 118 ft 2 kts 321°
2026-05-07 18:22 33.94683 -118.40018 118 ft 1 kts 348°
2026-05-07 18:22 33.94674 -118.40017 118 ft 1 kts 358°
2026-05-07 18:22 33.94673 -118.40017 118 ft 0 kts 357°
2026-05-07 18:24 33.94674 -118.40017 118 ft 0 kts 357°
2026-05-07 18:25 33.94688 -118.40018 118 ft 3 kts 357°
2026-05-07 18:25 33.94724 -118.40019 118 ft 7 kts
2026-05-07 18:25 33.94786 -118.40015 118 ft 10 kts
2026-05-07 18:25 33.94847 -118.40045 118 ft 9 kts 292°
2026-05-07 18:26 33.94912 -118.40076 118 ft 15 kts 39°
2026-05-07 18:26 33.94933 -118.39959 117 ft 9 kts 73°
2026-05-07 18:26 33.94957 -118.39924 117 ft 5 kts 26°
2026-05-07 18:26 33.94998 -118.39919 116 ft 8 kts 358°
2026-05-07 18:27 33.95042 -118.39968 117 ft 13 kts 265°
2026-05-07 18:27 33.95005 -118.40311 120 ft 71 kts 263°
2026-05-07 18:27 33.94922 -118.41132 124 ft 124 kts 263°
2026-05-07 18:27 33.94796 -118.42338 135 ft 165 kts 262°
2026-05-07 18:28 33.94648 -118.43701 622 ft 165 kts 262°
2026-05-07 18:28 33.94493 -118.45092 1095 ft 170 kts 263°
2026-05-07 18:28 33.94366 -118.46508 1550 ft 173 kts 266°
2026-05-07 18:28 33.94299 -118.48006 1839 ft 186 kts 269°
2026-05-07 18:29 33.94252 -118.49609 2121 ft 200 kts 269°
2026-05-07 18:29 33.94183 -118.51348 2419 ft 216 kts 267°
2026-05-07 18:29 33.94053 -118.53184 2924 ft 222 kts 266°
2026-05-07 18:29 33.93908 -118.55035 3494 ft 226 kts 266°
2026-05-07 18:30 33.93747 -118.56958 3860 ft 239 kts 265°
2026-05-07 18:30 33.93544 -118.58993 4220 ft 252 kts 261°
2026-05-07 18:30 33.92960 -118.61026 4553 ft 267 kts 239°
2026-05-07 18:30 33.91658 -118.62633 5122 ft 271 kts 216°
2026-05-07 18:31 33.90001 -118.63646 5893 ft 271 kts 200°
2026-05-07 18:31 33.88136 -118.64130 6557 ft 280 kts 184°
2026-05-07 18:31 33.86187 -118.64064 7272 ft 285 kts 174°
2026-05-07 18:31 33.84255 -118.63583 8053 ft 287 kts 160°
2026-05-07 18:32 33.82481 -118.62505 8832 ft 286 kts 144°
2026-05-07 18:32 33.80832 -118.61123 9504 ft 292 kts 143°
2026-05-07 18:32 33.79165 -118.59718 10246 ft 295 kts 143°
2026-05-07 18:32 33.77451 -118.58322 10746 ft 307 kts 144°
2026-05-07 18:33 33.75638 -118.56864 11127 ft 322 kts 144°
2026-05-07 18:33 33.73715 -118.55316 11499 ft 337 kts 143°
2026-05-07 18:33 33.71751 -118.53693 11952 ft 348 kts 141°
2026-05-07 18:33 33.69965 -118.51736 12522 ft 350 kts 127°
2026-05-07 18:34 33.68757 -118.49247 13170 ft 348 kts 109°
2026-05-07 18:34 33.67934 -118.46547 13811 ft 350 kts 106°
2026-05-07 18:34 33.67166 -118.43773 14441 ft 353 kts 105°
2026-05-07 18:34 33.66381 -118.40955 15073 ft 356 kts 106°
2026-05-07 18:35 33.65588 -118.38144 15672 ft 359 kts 105°
2026-05-07 18:35 33.64928 -118.35254 16279 ft 360 kts 99°
2026-05-07 18:35 33.64543 -118.32320 16858 ft 360 kts 93°
2026-05-07 18:35 33.64391 -118.29315 17407 ft 363 kts 89°
2026-05-07 18:36 33.64364 -118.26314 17946 ft 365 kts 87°
2026-05-07 18:36 33.64388 -118.23230 18474 ft 369 kts 86°
2026-05-07 18:36 33.64420 -118.20160 19023 ft 372 kts 86°
2026-05-07 18:36 33.64444 -118.17066 19551 ft 375 kts 87°
2026-05-07 18:37 33.64457 -118.13930 20055 ft 378 kts 87°
2026-05-07 18:37 33.64463 -118.10770 20533 ft 382 kts 87°
2026-05-07 18:37 33.64463 -118.07596 21020 ft 385 kts 87°
2026-05-07 18:37 33.64461 -118.04370 21493 ft 388 kts 87°
2026-05-07 18:38 33.64458 -118.01166 21953 ft 391 kts 87°
2026-05-07 18:38 33.64454 -117.97883 22405 ft 394 kts 87°
2026-05-07 18:38 33.64451 -117.94618 22807 ft 398 kts 87°
2026-05-07 18:38 33.64444 -117.91281 23300 ft 399 kts 87°
2026-05-07 18:39 33.64435 -117.87998 24037 ft 393 kts 87°
2026-05-07 18:39 33.64426 -117.84755 24530 ft 394 kts 87°
2026-05-07 18:39 33.64484 -117.81458 24895 ft 397 kts 84°
2026-05-07 18:39 33.64747 -117.78184 25279 ft 397 kts 79°
2026-05-07 18:40 33.65233 -117.74915 25677 ft 398 kts 75°
2026-05-07 18:40 33.65829 -117.71684 26082 ft 399 kts 74°
2026-05-07 18:40 33.66468 -117.68440 26492 ft 400 kts 73°
2026-05-07 18:40 33.67115 -117.65204 26931 ft 400 kts 73°
2026-05-07 18:41 33.67771 -117.61907 27089 ft 408 kts 73°
2026-05-07 18:41 33.68420 -117.58625 27346 ft 412 kts 73°
2026-05-07 18:41 33.69076 -117.55260 27753 ft 413 kts 74°
2026-05-07 18:41 33.69723 -117.51919 28196 ft 412 kts 74°
2026-05-07 18:42 33.70360 -117.48606 28579 ft 413 kts 73°
2026-05-07 18:42 33.71013 -117.45194 28746 ft 418 kts 74°
2026-05-07 18:42 33.71660 -117.41807 28950 ft 423 kts 74°
2026-05-07 18:42 33.72320 -117.38343 29076 ft 430 kts 74°
2026-05-07 18:43 33.72984 -117.34848 29339 ft 433 kts 75°
2026-05-07 18:43 33.73657 -117.31297 29576 ft 436 kts 75°
2026-05-07 18:43 33.74298 -117.27711 29861 ft 439 kts 76°
2026-05-07 18:43 33.74768 -117.24108 30202 ft 442 kts 80°
2026-05-07 18:44 33.75005 -117.20452 30727 ft 439 kts 84°
2026-05-07 18:44 33.75065 -117.16803 31288 ft 435 kts 86°
2026-05-07 18:44 33.75031 -117.13200 31749 ft 433 kts 88°
2026-05-07 18:44 33.74954 -117.09583 32079 ft 433 kts 88°
2026-05-07 18:45 33.74861 -117.05978 32405 ft 433 kts 88°
2026-05-07 18:45 33.74765 -117.02374 32729 ft 433 kts 88°
2026-05-07 18:45 33.74671 -116.98772 33117 ft 431 kts 88°
2026-05-07 18:45 33.74579 -116.95181 33487 ft 429 kts 88°
2026-05-07 18:46 33.74492 -116.91634 33852 ft 427 kts 88°
2026-05-07 18:46 33.74406 -116.88075 34208 ft 426 kts 88°
2026-05-07 18:46 33.74322 -116.84533 34551 ft 424 kts 88°
2026-05-07 18:46 33.74239 -116.80978 34861 ft 423 kts 88°
2026-05-07 18:47 33.74157 -116.77477 35130 ft 423 kts 87°
2026-05-07 18:47 33.73991 -116.70355 35201 ft 427 kts 87°
2026-05-07 18:48 33.73819 -116.63173 35154 ft 427 kts 87°
2026-05-07 18:48 33.73643 -116.56021 35109 ft 426 kts 87°
2026-05-07 18:49 33.73463 -116.48891 35070 ft 427 kts 87°
2026-05-07 18:49 33.73281 -116.41782 35051 ft 425 kts 88°
2026-05-07 18:50 33.73094 -116.34714 35025 ft 423 kts 88°
2026-05-07 18:50 33.72905 -116.27674 35003 ft 424 kts 88°
2026-05-07 18:51 33.72711 -116.20625 34999 ft 423 kts 88°
2026-05-07 18:51 33.72518 -116.13623 35020 ft 421 kts 87°
2026-05-07 18:52 33.72815 -116.06644 35057 ft 418 kts 77°
2026-05-07 18:52 33.74252 -115.99921 35095 ft 413 kts 69°
2026-05-07 18:53 33.76080 -115.93433 35131 ft 412 kts 68°
2026-05-07 18:53 33.77956 -115.86938 35146 ft 411 kts 68°
2026-05-07 18:54 33.79791 -115.80455 35153 ft 412 kts 68°
2026-05-07 18:54 33.81598 -115.73965 35163 ft 410 kts 68°
2026-05-07 18:55 33.83396 -115.67457 35133 ft 410 kts 69°
2026-05-07 18:55 33.85177 -115.60982 35084 ft 410 kts 68°
2026-05-07 18:56 33.86961 -115.54471 35052 ft 408 kts 68°
2026-05-07 18:56 33.88737 -115.47977 35030 ft 409 kts 69°
2026-05-07 18:57 33.90500 -115.41512 35005 ft 407 kts 69°
2026-05-07 18:57 33.92260 -115.35047 34992 ft 407 kts 69°
2026-05-07 18:58 33.94020 -115.28565 34994 ft 407 kts 69°
2026-05-07 18:58 33.95771 -115.22096 34973 ft 406 kts 69°
2026-05-07 18:59 33.97507 -115.15671 34976 ft 407 kts 69°
2026-05-07 18:59 33.99256 -115.09185 34975 ft 405 kts 69°
2026-05-07 19:00 34.00990 -115.02737 34979 ft 404 kts 69°
2026-05-07 19:00 34.02722 -114.96289 34980 ft 403 kts 69°
2026-05-07 19:01 34.04439 -114.89871 34979 ft 403 kts 69°
2026-05-07 19:01 34.06150 -114.83465 34985 ft 403 kts 69°
2026-05-07 19:02 34.07862 -114.77045 34983 ft 404 kts 69°
2026-05-07 19:02 34.09574 -114.70605 34985 ft 404 kts 69°
2026-05-07 19:03 34.11316 -114.64143 34989 ft 402 kts 68°
2026-05-07 19:03 34.13108 -114.57777 34984 ft 403 kts 68°
2026-05-07 19:04 34.14916 -114.51381 34982 ft 403 kts 68°
2026-05-07 19:04 34.16701 -114.45023 34979 ft 403 kts 68°
2026-05-07 19:05 34.18488 -114.38628 34972 ft 402 kts 68°
2026-05-07 19:05 34.20276 -114.32201 34969 ft 403 kts 69°
2026-05-07 19:06 34.22050 -114.25811 34961 ft 403 kts 69°
2026-05-07 19:06 34.24713 -114.16180 34897 ft 402 kts 69°
2026-05-07 19:07 34.26494 -114.09731 34960 ft 406 kts 69°
2026-05-07 19:07 34.28268 -114.03279 34967 ft 403 kts 69°
2026-05-07 19:08 34.30030 -113.96860 34980 ft 404 kts 69°
2026-05-07 19:08 34.31790 -113.90432 35143 ft 403 kts 69°
2026-05-07 19:09 34.32666 -113.87231 35020 ft 402 kts 69°
2026-05-07 19:09 34.33530 -113.84068 35021 ft 401 kts 69°
2026-05-07 19:09 34.35276 -113.77663 35031 ft 401 kts 69°
2026-05-07 19:10 34.37015 -113.71267 35054 ft 402 kts 69°
2026-05-07 19:10 34.38762 -113.64831 35058 ft 401 kts 69°
2026-05-07 19:11 34.40494 -113.58428 35070 ft 401 kts 69°
2026-05-07 19:11 34.42223 -113.52030 35089 ft 401 kts 69°
2026-05-07 19:12 34.43953 -113.45615 35114 ft 401 kts 69°
2026-05-07 19:12 34.45674 -113.39213 35116 ft 401 kts 69°
2026-05-07 19:13 34.47405 -113.32761 35127 ft 402 kts 69°
2026-05-07 19:13 34.49119 -113.26352 35139 ft 401 kts 69°
2026-05-07 19:14 34.50837 -113.19916 35138 ft 402 kts 69°
2026-05-07 19:14 34.52561 -113.13444 35152 ft 402 kts 69°
2026-05-07 19:15 34.54264 -113.07038 35155 ft 401 kts 69°
2026-05-07 19:15 34.55851 -113.00532 35175 ft 403 kts 74°
2026-05-07 19:16 34.56399 -112.93741 35190 ft 408 kts 86°
2026-05-07 19:16 34.56074 -112.86891 35196 ft 411 kts 90°
2026-05-07 19:17 34.55575 -112.79990 35193 ft 411 kts 90°
2026-05-07 19:17 34.55082 -112.73109 35198 ft 411 kts 90°
2026-05-07 19:18 34.54600 -112.66170 35200 ft 411 kts 90°
2026-05-07 19:18 34.54130 -112.59294 35200 ft 410 kts 90°
2026-05-07 19:19 34.53661 -112.52378 35209 ft 411 kts 90°
2026-05-07 19:19 34.53195 -112.45521 35202 ft 410 kts 90°
2026-05-07 19:20 34.52725 -112.38660 35194 ft 411 kts 90°
2026-05-07 19:20 34.52245 -112.31740 35183 ft 411 kts 91°
2026-05-07 19:21 34.51764 -112.24855 35182 ft 411 kts 91°
2026-05-07 19:21 34.51280 -112.17972 35176 ft 411 kts 91°
2026-05-07 19:22 34.50793 -112.11124 35178 ft 411 kts 91°
2026-05-07 19:22 34.50337 -112.04223 35185 ft 410 kts 89°
2026-05-07 19:23 34.50527 -111.97354 35184 ft 405 kts 79°
2026-05-07 19:23 34.51510 -111.90709 35169 ft 404 kts 75°
2026-05-07 19:24 34.52712 -111.84078 35173 ft 405 kts 74°
2026-05-07 19:24 34.53928 -111.77412 35180 ft 403 kts 75°
2026-05-07 19:25 34.54519 -111.74105 35025 ft 404 kts 75°
2026-05-07 19:25 34.55104 -111.70798 35175 ft 403 kts 75°
2026-05-07 19:25 34.56271 -111.64129 35206 ft 404 kts 75°
2026-05-07 19:26 34.57431 -111.57437 35222 ft 407 kts 75°
2026-05-07 19:26 34.58580 -111.50759 35240 ft 406 kts 75°
2026-05-07 19:27 34.59729 -111.44066 35250 ft 408 kts 75°
2026-05-07 19:27 34.60876 -111.37360 35249 ft 405 kts 75°
2026-05-07 19:28 34.62015 -111.30675 35255 ft 407 kts 76°
2026-05-07 19:28 34.63161 -111.23917 35259 ft 408 kts 76°
2026-05-07 19:29 34.64297 -111.17207 35257 ft 407 kts 76°
2026-05-07 19:29 34.65435 -111.10461 35255 ft 407 kts 76°
2026-05-07 19:30 34.66567 -111.03731 35249 ft 408 kts 76°
2026-05-07 19:30 34.67697 -110.96973 35245 ft 408 kts 76°
2026-05-07 19:31 34.68817 -110.90256 35238 ft 408 kts 76°
2026-05-07 19:31 34.69933 -110.83538 35234 ft 407 kts 76°
2026-05-07 19:32 34.71051 -110.76789 35234 ft 409 kts 76°
2026-05-07 19:32 34.72168 -110.70020 35235 ft 409 kts 76°
2026-05-07 19:33 34.73279 -110.63265 35234 ft 410 kts 76°
2026-05-07 19:33 34.74391 -110.56477 35233 ft 410 kts 76°
2026-05-07 19:34 34.75494 -110.49722 35233 ft 410 kts 76°
2026-05-07 19:34 34.76597 -110.42941 35233 ft 410 kts 76°
2026-05-07 19:35 34.77693 -110.36183 35234 ft 411 kts 76°
2026-05-07 19:35 34.78793 -110.29382 35234 ft 411 kts 77°
2026-05-07 19:36 34.79886 -110.22585 35232 ft 412 kts 77°
2026-05-07 19:36 34.80981 -110.15743 35232 ft 411 kts 77°
2026-05-07 19:37 34.82072 -110.08909 35230 ft 412 kts 77°
2026-05-07 19:37 34.83159 -110.02080 35230 ft 413 kts 77°
2026-05-07 19:38 34.84243 -109.95239 35230 ft 412 kts 77°
2026-05-07 19:38 34.85318 -109.88431 35228 ft 413 kts 77°
2026-05-07 19:39 34.86401 -109.81552 35234 ft 415 kts 77°
2026-05-07 19:39 34.87479 -109.74668 35235 ft 415 kts 77°
2026-05-07 19:40 34.88550 -109.67806 35237 ft 415 kts 77°
2026-05-07 19:40 34.89619 -109.60928 35242 ft 416 kts 77°
2026-05-07 19:41 34.90686 -109.54031 35249 ft 415 kts 78°
2026-05-07 19:41 34.91751 -109.47130 35248 ft 419 kts 78°
2026-05-07 19:42 34.92830 -109.40118 35247 ft 420 kts 78°
2026-05-07 19:42 34.93896 -109.33147 35257 ft 420 kts 78°
2026-05-07 19:43 34.94962 -109.26150 35256 ft 422 kts 78°
2026-05-07 19:43 34.96029 -109.19116 35260 ft 421 kts 78°
2026-05-07 19:44 34.96877 -109.12080 35253 ft 423 kts 84°
2026-05-07 19:44 34.97194 -109.04961 35244 ft 422 kts 86°
2026-05-07 19:45 34.97416 -108.97821 35241 ft 424 kts 86°
2026-05-07 19:45 34.97657 -108.90674 35234 ft 424 kts 86°
2026-05-07 19:46 34.97923 -108.83473 35244 ft 425 kts 86°
2026-05-07 19:46 34.98201 -108.76310 35257 ft 425 kts 85°
2026-05-07 19:47 34.98483 -108.69105 35275 ft 424 kts 86°
2026-05-07 19:47 34.98622 -108.65531 35392 ft 426 kts 85°
2026-05-07 19:47 34.98760 -108.61956 35289 ft 422 kts 85°
2026-05-07 19:48 34.99031 -108.54859 35291 ft 423 kts 85°
2026-05-07 19:48 34.99304 -108.47650 35301 ft 426 kts 85°
2026-05-07 19:49 34.99571 -108.40479 35304 ft 426 kts 86°
2026-05-07 19:49 34.99832 -108.33293 35303 ft 425 kts 86°
2026-05-07 19:50 35.00089 -108.26122 35306 ft 425 kts 86°
2026-05-07 19:50 35.00345 -108.18880 35307 ft 427 kts 86°
2026-05-07 19:51 35.00595 -108.11684 35308 ft 426 kts 86°
2026-05-07 19:51 35.00842 -108.04458 35309 ft 428 kts 86°
2026-05-07 19:52 35.01085 -107.97218 35305 ft 429 kts 86°
2026-05-07 19:52 35.01325 -107.89961 35297 ft 428 kts 86°
2026-05-07 19:53 35.01559 -107.82716 35278 ft 430 kts 86°
2026-05-07 19:53 35.01790 -107.75455 35277 ft 431 kts 86°
2026-05-07 19:54 35.02016 -107.68175 35274 ft 431 kts 86°
2026-05-07 19:54 35.02238 -107.60886 35262 ft 434 kts 86°
2026-05-07 19:55 35.02460 -107.53517 35263 ft 433 kts 86°
2026-05-07 19:55 35.02676 -107.46236 35250 ft 434 kts 86°
2026-05-07 19:56 35.02887 -107.38859 35242 ft 435 kts 86°
2026-05-07 19:56 35.03095 -107.31512 35237 ft 437 kts 87°
2026-05-07 19:57 35.03298 -107.24143 35229 ft 437 kts 87°
2026-05-07 19:57 35.03497 -107.16741 35229 ft 436 kts 88°
2026-05-07 19:58 35.03692 -107.09351 35218 ft 436 kts 88°
2026-05-07 19:58 35.03881 -107.01985 35209 ft 437 kts 88°
2026-05-07 19:59 35.04066 -106.94566 35186 ft 438 kts 88°
2026-05-07 19:59 35.04248 -106.87131 35170 ft 440 kts 88°
2026-05-07 20:00 35.04430 -106.79684 35173 ft 442 kts 87°
2026-05-07 20:00 35.04676 -106.72226 35167 ft 443 kts 86°
2026-05-07 20:01 35.04946 -106.64908 35175 ft 445 kts 86°
2026-05-07 20:01 35.05217 -106.57403 35178 ft 445 kts 86°
2026-05-07 20:02 35.05478 -106.49865 35183 ft 447 kts 86°
2026-05-07 20:02 35.05735 -106.42258 35184 ft 450 kts 87°
2026-05-07 20:03 35.05983 -106.34637 35214 ft 451 kts 88°
2026-05-07 20:03 35.06224 -106.27044 35231 ft 451 kts 88°
2026-05-07 20:04 35.06465 -106.19345 35226 ft 454 kts 89°
2026-05-07 20:04 35.06698 -106.11690 35230 ft 453 kts 89°
2026-05-07 20:05 35.06924 -106.04052 35220 ft 455 kts 89°
2026-05-07 20:05 35.07150 -105.96304 35213 ft 456 kts 89°
2026-05-07 20:06 35.07406 -105.88532 35217 ft 460 kts 88°
2026-05-07 20:06 35.07768 -105.80772 35223 ft 457 kts 88°
2026-05-07 20:07 35.08156 -105.72993 35235 ft 465 kts 88°
2026-05-07 20:07 35.08534 -105.65198 35226 ft 459 kts 88°
2026-05-07 20:08 35.08895 -105.57398 35234 ft 466 kts 88°
2026-05-07 20:08 35.09248 -105.49538 35224 ft 466 kts 88°
2026-05-07 20:09 35.09597 -105.41639 35225 ft 468 kts 88°
2026-05-07 20:10 35.10109 -105.29753 35214 ft 471 kts 89°
2026-05-07 20:10 35.10446 -105.21718 35205 ft 474 kts 89°
2026-05-07 20:11 35.10776 -105.13731 35198 ft 477 kts 90°
2026-05-07 20:11 35.11104 -105.05656 35190 ft 473 kts 89°
2026-05-07 20:12 35.11471 -104.97608 35184 ft 479 kts 88°
2026-05-07 20:12 35.11911 -104.89575 35172 ft 479 kts 88°
2026-05-07 20:13 35.12362 -104.81506 35167 ft 478 kts 89°
2026-05-07 20:13 35.12805 -104.73362 35164 ft 482 kts 89°
2026-05-07 20:14 35.13234 -104.65275 35162 ft 480 kts 89°
2026-05-07 20:14 35.13655 -104.57142 35159 ft 485 kts 89°
2026-05-07 20:15 35.14071 -104.48921 35160 ft 484 kts 89°
2026-05-07 20:15 35.14478 -104.40791 35159 ft 484 kts 89°
2026-05-07 20:16 35.14883 -104.32566 35156 ft 486 kts 89°
2026-05-07 20:16 35.15284 -104.24342 35159 ft 485 kts 90°
2026-05-07 20:17 35.15678 -104.16099 35154 ft 489 kts 90°
2026-05-07 20:17 35.16071 -104.07797 35163 ft 489 kts 90°
2026-05-07 20:18 35.16455 -103.99560 35159 ft 490 kts 90°
2026-05-07 20:18 35.16834 -103.91276 35151 ft 492 kts 90°
2026-05-07 20:19 35.17211 -103.82899 35145 ft 492 kts 90°
2026-05-07 20:19 35.17579 -103.74617 35130 ft 490 kts 90°
2026-05-07 20:20 35.17948 -103.66303 35115 ft 492 kts 89°
2026-05-07 20:20 35.18722 -103.57969 35111 ft 495 kts 80°
2026-05-07 20:21 35.20398 -103.49807 35317 ft 503 kts 74°
2026-05-07 20:21 35.21406 -103.45742 35655 ft 502 kts 73°
2026-05-07 20:21 35.22448 -103.41695 35994 ft 501 kts 73°
2026-05-07 20:21 35.23493 -103.37650 36302 ft 500 kts 73°
2026-05-07 20:22 35.24532 -103.33584 36584 ft 500 kts 74°
2026-05-07 20:22 35.25554 -103.29527 36796 ft 501 kts 74°
2026-05-07 20:22 35.26561 -103.25472 37024 ft 501 kts 75°
2026-05-07 20:22 35.27558 -103.21403 37129 ft 504 kts 75°
2026-05-07 20:23 35.28571 -103.17230 37128 ft 505 kts 75°
2026-05-07 20:23 35.30547 -103.09019 37128 ft 501 kts 75°
2026-05-07 20:24 35.32508 -103.00821 37128 ft 502 kts 75°
2026-05-07 20:24 35.34460 -102.92626 37121 ft 503 kts 75°
2026-05-07 20:25 35.36404 -102.84445 37115 ft 503 kts 75°
2026-05-07 20:25 35.38356 -102.76195 37111 ft 505 kts 75°
2026-05-07 20:26 35.40294 -102.67973 37108 ft 505 kts 75°
2026-05-07 20:26 35.42249 -102.59660 37106 ft 505 kts 75°
2026-05-07 20:27 35.44180 -102.51433 37102 ft 506 kts 75°
2026-05-07 20:27 35.46124 -102.43112 37100 ft 507 kts 75°
2026-05-07 20:28 35.48044 -102.34861 37099 ft 508 kts 75°
2026-05-07 20:28 35.49975 -102.26542 37092 ft 507 kts 75°
2026-05-07 20:29 35.51902 -102.18223 37089 ft 509 kts 76°
2026-05-07 20:29 35.53830 -102.09857 37090 ft 510 kts 75°
2026-05-07 20:30 35.55740 -102.01547 37091 ft 509 kts 76°
2026-05-07 20:30 35.57650 -101.93206 37086 ft 510 kts 76°
2026-05-07 20:31 35.59565 -101.84805 37083 ft 513 kts 75°
2026-05-07 20:31 35.61467 -101.76423 37079 ft 511 kts 76°
2026-05-07 20:32 35.63366 -101.68034 37075 ft 512 kts 75°
2026-05-07 20:32 35.65275 -101.59584 37080 ft 515 kts 75°
2026-05-07 20:33 35.67176 -101.51130 37075 ft 513 kts 75°
2026-05-07 20:33 35.69072 -101.42660 37071 ft 517 kts 75°
2026-05-07 20:34 35.70972 -101.34135 37063 ft 515 kts 76°
2026-05-07 20:34 35.72850 -101.25693 37065 ft 517 kts 76°
2026-05-07 20:35 35.74749 -101.17124 37062 ft 518 kts 76°
2026-05-07 20:35 35.76631 -101.08610 37062 ft 517 kts 76°
2026-05-07 20:36 35.78514 -101.00060 37060 ft 519 kts 76°
2026-05-07 20:36 35.80390 -100.91503 37058 ft 520 kts 75°
2026-05-07 20:37 35.82272 -100.82882 37049 ft 519 kts 75°
2026-05-07 20:37 35.84128 -100.74340 37048 ft 520 kts 76°
2026-05-07 20:38 35.85997 -100.65731 37046 ft 521 kts 76°
2026-05-07 20:38 35.87857 -100.57144 37046 ft 521 kts 76°
2026-05-07 20:39 35.89704 -100.48556 37045 ft 523 kts 76°
2026-05-07 20:39 35.91566 -100.39857 37045 ft 522 kts 76°
2026-05-07 20:40 35.93414 -100.31202 37043 ft 523 kts 76°
2026-05-07 20:40 35.95248 -100.22574 37040 ft 525 kts 76°
2026-05-07 20:41 35.97087 -100.13880 37037 ft 526 kts 76°
2026-05-07 20:41 35.98926 -100.05163 37031 ft 526 kts 76°
2026-05-07 20:42 36.00782 -99.96419 37036 ft 526 kts 75°
2026-05-07 20:42 36.02768 -99.87786 37027 ft 528 kts 74°
2026-05-07 20:43 36.04839 -99.79077 37028 ft 527 kts 73°
2026-05-07 20:43 36.06884 -99.70475 37020 ft 527 kts 73°
2026-05-07 20:44 36.08932 -99.61762 37020 ft 528 kts 73°
2026-05-07 20:44 36.10953 -99.53062 37017 ft 528 kts 73°
2026-05-07 20:45 36.12970 -99.44287 37016 ft 529 kts 73°
2026-05-07 20:45 36.14964 -99.35579 37011 ft 529 kts 74°
2026-05-07 20:46 36.16956 -99.26862 37009 ft 528 kts 75°
2026-05-07 20:46 36.18937 -99.18153 37006 ft 530 kts 75°
2026-05-07 20:47 36.20936 -99.09347 37003 ft 529 kts 74°
2026-05-07 20:47 36.22901 -99.00647 36997 ft 528 kts 75°
2026-05-07 20:48 36.24880 -98.91853 36999 ft 530 kts 75°
2026-05-07 20:48 36.26843 -98.83112 36993 ft 528 kts 74°
2026-05-07 20:49 36.28793 -98.74397 36995 ft 530 kts 74°
2026-05-07 20:49 36.30744 -98.65620 36987 ft 529 kts 74°
2026-05-07 20:50 36.32684 -98.56850 36983 ft 529 kts 74°
2026-05-07 20:50 36.34623 -98.48063 36974 ft 530 kts 74°
2026-05-07 20:51 36.36565 -98.39236 36965 ft 529 kts 74°
2026-05-07 20:51 36.38499 -98.30424 36961 ft 530 kts 75°
2026-05-07 20:52 36.40418 -98.21634 36965 ft 531 kts 75°
2026-05-07 20:52 36.42341 -98.12806 36977 ft 530 kts 75°
2026-05-07 20:53 36.44241 -98.04031 36982 ft 531 kts 75°
2026-05-07 20:53 36.46151 -97.95174 36990 ft 533 kts 75°
2026-05-07 20:54 36.48059 -97.86298 36984 ft 530 kts 75°
2026-05-07 20:54 36.49954 -97.77451 36985 ft 532 kts 75°
2026-05-07 20:55 36.51852 -97.68562 36987 ft 534 kts 75°
2026-05-07 20:55 36.53726 -97.59750 36979 ft 533 kts 74°
2026-05-07 20:56 36.55610 -97.50847 36981 ft 534 kts 75°
2026-05-07 20:56 36.57487 -97.41942 36983 ft 534 kts 74°
2026-05-07 20:57 36.59359 -97.33034 36983 ft 533 kts 75°
2026-05-07 20:57 36.61226 -97.24096 36995 ft 534 kts 75°
2026-05-07 20:58 36.63084 -97.15179 36994 ft 535 kts 75°
2026-05-07 20:58 36.64934 -97.06265 36996 ft 535 kts 75°
2026-05-07 20:59 36.66787 -96.97302 36987 ft 535 kts 75°
2026-05-07 20:59 36.68632 -96.88340 36993 ft 536 kts 75°
2026-05-07 21:00 36.70473 -96.79368 36987 ft 535 kts 75°
2026-05-07 21:00 36.72290 -96.70450 36986 ft 536 kts 75°
2026-05-07 21:01 36.74124 -96.61420 36986 ft 536 kts 75°
2026-05-07 21:01 36.75939 -96.52438 36986 ft 536 kts 75°
2026-05-07 21:02 36.77737 -96.43501 36988 ft 536 kts 75°
2026-05-07 21:02 36.79560 -96.34438 36992 ft 538 kts 75°
2026-05-07 21:03 36.81368 -96.25402 37000 ft 538 kts 76°
2026-05-07 21:03 36.83152 -96.16390 37019 ft 539 kts 76°
2026-05-07 21:04 36.84943 -96.07328 37022 ft 541 kts 76°
2026-05-07 21:04 36.86734 -95.98257 37024 ft 539 kts 76°
2026-05-07 21:05 36.88525 -95.89117 37024 ft 543 kts 75°
2026-05-07 21:05 36.90303 -95.80038 37018 ft 541 kts 75°
2026-05-07 21:06 36.92086 -95.70917 37016 ft 541 kts 75°
2026-05-07 21:06 36.93848 -95.61845 37011 ft 541 kts 75°
2026-05-07 21:07 36.95620 -95.52670 37003 ft 541 kts 75°
2026-05-07 21:07 36.97372 -95.43548 37001 ft 541 kts 75°
2026-05-07 21:08 36.99123 -95.34395 37001 ft 543 kts 76°
2026-05-07 21:08 37.00855 -95.25294 37002 ft 542 kts 75°
2026-05-07 21:09 37.02600 -95.16080 37001 ft 544 kts 76°
2026-05-07 21:09 37.04341 -95.06859 37005 ft 544 kts 76°
2026-05-07 21:10 37.06069 -94.97657 37008 ft 545 kts 75°
2026-05-07 21:10 37.07787 -94.88468 37016 ft 544 kts 76°
2026-05-07 21:11 37.09502 -94.79266 37016 ft 546 kts 76°
2026-05-07 21:11 37.12077 -94.65393 37020 ft 545 kts 75°
2026-05-07 21:12 37.13770 -94.56204 37028 ft 545 kts 76°
2026-05-07 21:12 37.15465 -94.46929 37027 ft 546 kts 75°
2026-05-07 21:13 37.17144 -94.37696 37028 ft 546 kts 75°
2026-05-07 21:13 37.18826 -94.28425 37027 ft 547 kts 76°
2026-05-07 21:14 37.20496 -94.19143 37017 ft 547 kts 77°
2026-05-07 21:14 37.22161 -94.09863 37016 ft 548 kts 76°
2026-05-07 21:15 37.23829 -94.00565 37016 ft 549 kts 76°
2026-05-07 21:15 37.25494 -93.91256 37013 ft 547 kts 76°
2026-05-07 21:16 37.27133 -93.81995 37020 ft 548 kts 76°
2026-05-07 21:16 37.28768 -93.72707 37020 ft 548 kts 75°
2026-05-07 21:17 37.30397 -93.63390 37028 ft 548 kts 75°
2026-05-07 21:17 37.32029 -93.54024 37029 ft 547 kts 75°
2026-05-07 21:18 37.33639 -93.44783 37028 ft 548 kts 76°
2026-05-07 21:18 37.35255 -93.35388 37032 ft 549 kts 76°
2026-05-07 21:19 37.36705 -93.25991 37028 ft 548 kts 80°
2026-05-07 21:19 37.37790 -93.16528 37025 ft 550 kts 82°
2026-05-07 21:20 37.38755 -93.07065 37023 ft 550 kts 82°
2026-05-07 21:20 37.39736 -92.97569 37020 ft 550 kts 82°
2026-05-07 21:21 37.40752 -92.88068 37020 ft 551 kts 82°
2026-05-07 21:21 37.41806 -92.78563 37020 ft 549 kts 81°
2026-05-07 21:22 37.42870 -92.69017 37021 ft 552 kts 81°
2026-05-07 21:22 37.43916 -92.59512 37020 ft 551 kts 81°
2026-05-07 21:23 37.44957 -92.49995 37014 ft 551 kts 81°
2026-05-07 21:23 37.45990 -92.40507 37015 ft 551 kts 81°
2026-05-07 21:24 37.47020 -92.30910 37017 ft 551 kts 81°
2026-05-07 21:24 37.48039 -92.21375 37014 ft 551 kts 81°
2026-05-07 21:25 37.49044 -92.11901 37013 ft 551 kts 82°
2026-05-07 21:25 37.50045 -92.02326 37016 ft 552 kts 82°
2026-05-07 21:26 37.51039 -91.92789 37014 ft 551 kts 82°
2026-05-07 21:26 37.52026 -91.83232 37015 ft 553 kts 82°
2026-05-07 21:27 37.53013 -91.73666 37014 ft 550 kts 82°
2026-05-07 21:27 37.53989 -91.64088 37016 ft 555 kts 81°
2026-05-07 21:28 37.54951 -91.54511 37012 ft 552 kts 82°
2026-05-07 21:28 37.55906 -91.44918 37014 ft 553 kts 81°
2026-05-07 21:29 37.56856 -91.35364 37015 ft 553 kts 82°
2026-05-07 21:29 37.57798 -91.25773 37017 ft 552 kts 82°
2026-05-07 21:30 37.58730 -91.16181 37013 ft 553 kts 82°
2026-05-07 21:30 37.59658 -91.06574 37014 ft 553 kts 82°
2026-05-07 21:31 37.60574 -90.96986 37015 ft 554 kts 82°
2026-05-07 21:31 37.61488 -90.87350 37014 ft 552 kts 81°
2026-05-07 21:32 37.62391 -90.77756 37016 ft 554 kts 82°
2026-05-07 21:32 37.63289 -90.68148 37017 ft 553 kts 82°
2026-05-07 21:33 37.64174 -90.58567 37018 ft 554 kts 82°
2026-05-07 21:33 37.65051 -90.48988 37025 ft 552 kts 82°
2026-05-07 21:34 37.65926 -90.39342 37025 ft 555 kts 82°
2026-05-07 21:34 37.66793 -90.29701 37027 ft 551 kts 83°
2026-05-07 21:35 37.67662 -90.20104 37016 ft 554 kts 82°
2026-05-07 21:35 37.68677 -90.10523 37008 ft 551 kts 80°
2026-05-07 21:36 37.69774 -90.01022 37006 ft 553 kts 80°
2026-05-07 21:36 37.70885 -89.91385 37013 ft 553 kts 80°
2026-05-07 21:37 37.71963 -89.81812 37018 ft 553 kts 80°
2026-05-07 21:37 37.73006 -89.72245 37024 ft 555 kts 80°
2026-05-07 21:38 37.74045 -89.62606 37027 ft 554 kts 81°
2026-05-07 21:38 37.75072 -89.53021 37028 ft 553 kts 80°
2026-05-07 21:39 37.76091 -89.43436 37032 ft 554 kts 81°
2026-05-07 21:39 37.77100 -89.33816 37037 ft 554 kts 81°
2026-05-07 21:40 37.78096 -89.24239 37041 ft 555 kts 82°
2026-05-07 21:40 37.79095 -89.14552 37041 ft 555 kts 81°
2026-05-07 21:41 37.80078 -89.05000 37043 ft 554 kts 81°
2026-05-07 21:41 37.81068 -88.95343 37044 ft 555 kts 81°
2026-05-07 21:42 37.82036 -88.85706 37042 ft 553 kts 81°
2026-05-07 21:42 37.83000 -88.76051 37043 ft 554 kts 81°
2026-05-07 21:43 37.83958 -88.66422 37040 ft 553 kts 81°
2026-05-07 21:43 37.84913 -88.56782 37044 ft 555 kts 81°
2026-05-07 21:44 37.85852 -88.47158 37038 ft 554 kts 81°
2026-05-07 21:44 37.86777 -88.37530 37038 ft 553 kts 81°
2026-05-07 21:45 37.87699 -88.27914 37035 ft 552 kts 82°
2026-05-07 21:45 37.88627 -88.18239 37031 ft 553 kts 81°
2026-05-07 21:46 37.89537 -88.08639 37032 ft 551 kts 81°
2026-05-07 21:46 37.90435 -87.99007 37028 ft 551 kts 82°
2026-05-07 21:47 37.91324 -87.89394 37033 ft 551 kts 82°
2026-05-07 21:47 37.92198 -87.79820 37040 ft 552 kts 82°
2026-05-07 21:48 37.93073 -87.70187 37041 ft 551 kts 82°
2026-05-07 21:48 37.93938 -87.60610 37043 ft 551 kts 81°
2026-05-07 21:49 37.94800 -87.50983 37043 ft 553 kts 82°
2026-05-07 21:49 37.95650 -87.41358 37045 ft 549 kts 82°
2026-05-07 21:50 37.96494 -87.31704 37045 ft 550 kts 82°
2026-05-07 21:50 37.97323 -87.22134 37041 ft 551 kts 83°
2026-05-07 21:51 37.98151 -87.12507 37040 ft 550 kts 83°
2026-05-07 21:51 37.98972 -87.02882 37036 ft 550 kts 82°
2026-05-07 21:52 37.99783 -86.93253 37033 ft 550 kts 83°
2026-05-07 21:52 38.00584 -86.83623 37035 ft 550 kts 82°
2026-05-07 21:53 38.01378 -86.73999 37030 ft 551 kts 83°
2026-05-07 21:53 38.02164 -86.64397 37031 ft 550 kts 83°
2026-05-07 21:54 38.02940 -86.54821 37029 ft 551 kts 83°
2026-05-07 21:54 38.03714 -86.45151 37032 ft 551 kts 83°
2026-05-07 21:55 38.04477 -86.35538 37030 ft 550 kts 83°
2026-05-07 21:55 38.05234 -86.25884 37028 ft 551 kts 83°
2026-05-07 21:56 38.05980 -86.16286 37034 ft 551 kts 84°
2026-05-07 21:56 38.06722 -86.06602 37035 ft 550 kts 84°
2026-05-07 21:57 38.07457 -85.96934 37034 ft 552 kts 84°
2026-05-07 21:57 38.08181 -85.87294 37035 ft 550 kts 84°
2026-05-07 21:58 38.08892 -85.77687 37034 ft 552 kts 84°
2026-05-07 21:58 38.09600 -85.67987 37032 ft 552 kts 84°
2026-05-07 21:59 38.09878 -85.58298 37032 ft 551 kts 92°
2026-05-07 21:59 38.09103 -85.48660 37030 ft 549 kts 101°
2026-05-07 22:00 38.07690 -85.39247 37027 ft 547 kts 104°
2026-05-07 22:00 38.06128 -85.29795 37035 ft 548 kts 105°
2026-05-07 22:01 38.04570 -85.20334 37025 ft 549 kts 106°
2026-05-07 22:01 38.03043 -85.10890 36927 ft 547 kts 105°
2026-05-07 22:02 38.01539 -85.01479 37034 ft 552 kts 105°
2026-05-07 22:02 38.00026 -84.91961 37033 ft 548 kts 104°
2026-05-07 22:03 37.98520 -84.82529 37022 ft 549 kts 105°
2026-05-07 22:03 37.97007 -84.73093 37009 ft 549 kts 104°
2026-05-07 22:04 37.95481 -84.63650 37005 ft 548 kts 105°
2026-05-07 22:04 37.93946 -84.54226 37141 ft 550 kts 105°
2026-05-07 22:05 37.92398 -84.44772 37133 ft 547 kts 105°
2026-05-07 22:05 37.91618 -84.40023 36848 ft 549 kts 105°
2026-05-07 22:05 37.90851 -84.35358 37144 ft 546 kts 104°
2026-05-07 22:06 37.90068 -84.30627 36986 ft 548 kts 106°
2026-05-07 22:06 37.89290 -84.25935 37049 ft 552 kts 105°
2026-05-07 22:06 37.87716 -84.16460 37001 ft 546 kts 106°
2026-05-07 22:07 37.86159 -84.07123 37007 ft 549 kts 105°
2026-05-07 22:07 37.84564 -83.97647 37004 ft 550 kts 105°
2026-05-07 22:08 37.82970 -83.88215 37005 ft 549 kts 106°
2026-05-07 22:08 37.81377 -83.78818 36996 ft 549 kts 105°
2026-05-07 22:09 37.79773 -83.69415 36995 ft 549 kts 105°
2026-05-07 22:09 37.78173 -83.60074 36993 ft 548 kts 105°
2026-05-07 22:10 37.76547 -83.50647 36990 ft 550 kts 105°
2026-05-07 22:10 37.74912 -83.41207 36990 ft 550 kts 106°
2026-05-07 22:11 37.73285 -83.31847 36988 ft 547 kts 107°
2026-05-07 22:11 37.71645 -83.22458 36984 ft 549 kts 107°
2026-05-07 22:12 37.69993 -83.13066 36983 ft 548 kts 106°
2026-05-07 22:12 37.68348 -83.03740 36982 ft 549 kts 106°
2026-05-07 22:13 37.66686 -82.94363 36987 ft 550 kts 106°
2026-05-07 22:13 37.65016 -82.84932 36983 ft 548 kts 105°
2026-05-07 22:14 37.63869 -82.75468 36983 ft 554 kts 94°
2026-05-07 22:14 37.64015 -82.65829 36986 ft 553 kts 85°
2026-05-07 22:15 37.64833 -82.56227 36984 ft 552 kts 81°
2026-05-07 22:15 37.65870 -82.46643 36989 ft 551 kts 80°
2026-05-07 22:16 37.66904 -82.37098 36980 ft 551 kts 80°
2026-05-07 22:16 37.67862 -82.27509 36972 ft 551 kts 82°
2026-05-07 22:17 37.68761 -82.17955 36976 ft 552 kts 82°
2026-05-07 22:17 37.69639 -82.08351 36969 ft 551 kts 82°
2026-05-07 22:18 37.70935 -81.94025 36964 ft 550 kts 83°
2026-05-07 22:19 37.71791 -81.84485 36970 ft 550 kts 83°
2026-05-07 22:19 37.72641 -81.74949 36954 ft 549 kts 82°
2026-05-07 22:20 37.73485 -81.65402 36950 ft 548 kts 82°
2026-05-07 22:20 37.74320 -81.55883 36947 ft 547 kts 83°
2026-05-07 22:21 37.75149 -81.46346 36948 ft 547 kts 82°
2026-05-07 22:21 37.75971 -81.36796 36947 ft 549 kts 82°
2026-05-07 22:22 37.76790 -81.27190 36955 ft 549 kts 83°
2026-05-07 22:22 37.77599 -81.17604 36960 ft 549 kts 84°
2026-05-07 22:23 37.78431 -81.08005 36961 ft 551 kts 82°
2026-05-07 22:23 37.79501 -80.98388 36944 ft 550 kts 79°
2026-05-07 22:24 37.80666 -80.88937 36940 ft 548 kts 80°
2026-05-07 22:24 37.81830 -80.79372 36931 ft 548 kts 79°
2026-05-07 22:25 37.82939 -80.69906 36930 ft 548 kts 80°
2026-05-07 22:25 37.84035 -80.60320 36937 ft 550 kts 81°
2026-05-07 22:26 37.85104 -80.50806 36940 ft 550 kts 81°
2026-05-07 22:26 37.86394 -80.41287 36938 ft 550 kts 74°
2026-05-07 22:27 37.88625 -80.32144 36940 ft 542 kts 64°
2026-05-07 22:27 37.91511 -80.23399 36933 ft 542 kts 60°
2026-05-07 22:28 37.94589 -80.14774 36927 ft 539 kts 60°
2026-05-07 22:28 37.97662 -80.06100 36930 ft 539 kts 60°
2026-05-07 22:29 38.00670 -79.97407 36929 ft 538 kts 61°
2026-05-07 22:29 38.03637 -79.88686 36924 ft 539 kts 61°
2026-05-07 22:30 38.06582 -79.79962 36922 ft 540 kts 61°
2026-05-07 22:30 38.09508 -79.71248 36915 ft 540 kts 61°
2026-05-07 22:31 38.12436 -79.62512 36912 ft 539 kts 62°
2026-05-07 22:31 38.15364 -79.53751 36911 ft 537 kts 62°
2026-05-07 22:32 38.18275 -79.45023 36905 ft 540 kts 62°
2026-05-07 22:32 38.21193 -79.36254 36898 ft 539 kts 62°
2026-05-07 22:33 38.24095 -79.27495 36881 ft 538 kts 63°
2026-05-07 22:33 38.25538 -79.23135 36534 ft 536 kts 63°
2026-05-07 22:33 38.26961 -79.18822 36028 ft 533 kts 62°
2026-05-07 22:33 38.28387 -79.14494 35348 ft 533 kts 62°
2026-05-07 22:34 38.29821 -79.10143 34564 ft 536 kts 62°
2026-05-07 22:34 38.31266 -79.05756 33728 ft 540 kts 62°
2026-05-07 22:34 38.32715 -79.01355 32929 ft 543 kts 62°
2026-05-07 22:34 38.34174 -78.96918 32122 ft 547 kts 62°
2026-05-07 22:35 38.35638 -78.92451 31301 ft 550 kts 63°
2026-05-07 22:35 38.37096 -78.87991 30456 ft 553 kts 63°
2026-05-07 22:35 38.38566 -78.83488 29600 ft 556 kts 64°
2026-05-07 22:35 38.40053 -78.78921 28656 ft 557 kts 64°
2026-05-07 22:36 38.41533 -78.74365 27726 ft 558 kts 64°
2026-05-07 22:36 38.42987 -78.69871 27144 ft 550 kts 64°
2026-05-07 22:36 38.44408 -78.65412 26888 ft 535 kts 65°
2026-05-07 22:36 38.45663 -78.61060 26898 ft 525 kts 68°
2026-05-07 22:37 38.46823 -78.56640 26895 ft 528 kts 69°
2026-05-07 22:37 38.47940 -78.52172 26889 ft 530 kts 70°
2026-05-07 22:37 38.49032 -78.47705 26894 ft 529 kts 70°
2026-05-07 22:37 38.50132 -78.43185 26773 ft 532 kts 70°
2026-05-07 22:38 38.51226 -78.38714 26455 ft 527 kts 70°
2026-05-07 22:38 38.52302 -78.34338 25959 ft 519 kts 71°
2026-05-07 22:38 38.53384 -78.29976 25406 ft 512 kts 70°
2026-05-07 22:38 38.54449 -78.25689 24845 ft 506 kts 70°
2026-05-07 22:39 38.55507 -78.21399 24277 ft 501 kts 71°
2026-05-07 22:39 38.56532 -78.17223 23710 ft 495 kts 71°
2026-05-07 22:39 38.57548 -78.13065 23326 ft 485 kts 71°
2026-05-07 22:39 38.58496 -78.08988 22870 ft 478 kts 73°
2026-05-07 22:40 38.59384 -78.04915 22283 ft 474 kts 73°
2026-05-07 22:40 38.60236 -78.00877 21724 ft 469 kts 74°
2026-05-07 22:40 38.61070 -77.96876 21194 ft 464 kts 73°
2026-05-07 22:40 38.61892 -77.92932 20662 ft 458 kts 74°
2026-05-07 22:41 38.62708 -77.89026 20130 ft 453 kts 73°
2026-05-07 22:41 38.63509 -77.85207 19609 ft 448 kts 73°
2026-05-07 22:41 38.64239 -77.81361 19076 ft 443 kts 78°
2026-05-07 22:41 38.64727 -77.77529 18881 ft 431 kts 83°
2026-05-07 22:42 38.65053 -77.73701 18885 ft 433 kts 86°
2026-05-07 22:42 38.65297 -77.69884 18894 ft 437 kts 87°
2026-05-07 22:42 38.65512 -77.66019 18894 ft 436 kts 87°
2026-05-07 22:42 38.65720 -77.62178 18887 ft 435 kts 87°
2026-05-07 22:43 38.65928 -77.58305 18893 ft 437 kts 87°
2026-05-07 22:43 38.66138 -77.54455 18891 ft 435 kts 87°
2026-05-07 22:43 38.66349 -77.50630 18603 ft 430 kts 87°
2026-05-07 22:43 38.66562 -77.46822 18076 ft 426 kts 87°
2026-05-07 22:44 38.66773 -77.43085 17525 ft 422 kts 87°
2026-05-07 22:44 38.66982 -77.39382 17040 ft 418 kts 87°
2026-05-07 22:44 38.67189 -77.35724 16529 ft 414 kts 87°
2026-05-07 22:44 38.67397 -77.32069 16079 ft 408 kts 88°
2026-05-07 22:45 38.67600 -77.28511 15800 ft 398 kts 88°
2026-05-07 22:45 38.67805 -77.24937 15377 ft 404 kts 88°
2026-05-07 22:45 38.68007 -77.21393 14888 ft 405 kts 88°
2026-05-07 22:45 38.68211 -77.17823 14367 ft 401 kts 88°
2026-05-07 22:46 38.68414 -77.14256 13853 ft 396 kts 88°
2026-05-07 22:46 38.68612 -77.10768 13351 ft 392 kts 88°
2026-05-07 22:46 38.68806 -77.07317 12848 ft 388 kts 88°
2026-05-07 22:46 38.68993 -77.03934 12351 ft 384 kts 87°
2026-05-07 22:47 38.69177 -77.00551 11896 ft 379 kts 87°
2026-05-07 22:47 38.69360 -76.97179 11364 ft 377 kts 86°
2026-05-07 22:47 38.69537 -76.93899 11015 ft 368 kts 86°
2026-05-07 22:47 38.69711 -76.90665 10693 ft 360 kts 86°
2026-05-07 22:48 38.69883 -76.87481 10355 ft 353 kts 85°
2026-05-07 22:48 38.70032 -76.84717 10203 ft 341 kts 85°
2026-05-07 22:48 38.70190 -76.81760 10022 ft 330 kts 85°
2026-05-07 22:48 38.70346 -76.78848 9622 ft 329 kts 85°
2026-05-07 22:49 38.70536 -76.75941 9222 ft 327 kts 80°
2026-05-07 22:49 38.71105 -76.73208 9003 ft 313 kts 63°
2026-05-07 22:49 38.72077 -76.70760 8995 ft 307 kts 56°
2026-05-07 22:49 38.73164 -76.68400 8717 ft 302 kts 55°
2026-05-07 22:50 38.74233 -76.66109 8360 ft 301 kts 55°
2026-05-07 22:50 38.75274 -76.63814 7970 ft 300 kts 56°
2026-05-07 22:50 38.76300 -76.61490 7581 ft 296 kts 56°
2026-05-07 22:50 38.77391 -76.59322 7203 ft 287 kts 47°
2026-05-07 22:51 38.78808 -76.57658 6975 ft 269 kts 25°
2026-05-07 22:51 38.80516 -76.56893 6804 ft 252 kts
2026-05-07 22:51 38.82233 -76.56506 6490 ft 249 kts
2026-05-07 22:51 38.83939 -76.56139 6145 ft 247 kts
2026-05-07 22:52 38.85626 -76.56059 5999 ft 247 kts 352°
2026-05-07 22:52 38.87369 -76.56449 5999 ft 256 kts 346°
2026-05-07 22:52 38.89098 -76.56973 5968 ft 255 kts 345°
2026-05-07 22:52 38.90805 -76.57479 5737 ft 249 kts 346°
2026-05-07 22:53 38.92481 -76.57946 5409 ft 246 kts 346°
2026-05-07 22:53 38.94156 -76.58395 5166 ft 240 kts 347°
2026-05-07 22:53 38.95746 -76.58863 5081 ft 235 kts 342°
2026-05-07 22:53 38.97198 -76.59824 4987 ft 234 kts 318°
2026-05-07 22:54 38.98158 -76.61504 5009 ft 238 kts 300°
2026-05-07 22:54 38.98939 -76.63364 4984 ft 235 kts 299°
2026-05-07 22:54 38.99720 -76.65202 4800 ft 231 kts 300°
2026-05-07 22:54 39.00505 -76.66999 4518 ft 235 kts 301°
2026-05-07 22:55 39.01333 -76.68846 4225 ft 237 kts 301°
2026-05-07 22:55 39.02148 -76.70642 4108 ft 227 kts 301°
2026-05-07 22:55 39.02917 -76.72349 4039 ft 216 kts 301°
2026-05-07 22:55 39.03654 -76.74002 4008 ft 215 kts 301°
2026-05-07 22:56 39.04399 -76.75678 4002 ft 215 kts 300°
2026-05-07 22:56 39.05142 -76.77354 4014 ft 214 kts 301°
2026-05-07 22:56 39.05903 -76.79013 4002 ft 213 kts 305°
2026-05-07 22:56 39.06869 -76.80443 3973 ft 211 kts 319°
2026-05-07 22:57 39.08092 -76.81452 3745 ft 211 kts 336°
2026-05-07 22:57 39.09463 -76.82040 3572 ft 205 kts 347°
2026-05-07 22:57 39.10835 -76.82263 3425 ft 192 kts 353°
2026-05-07 22:57 39.12171 -76.82500 3053 ft 193 kts 351°
2026-05-07 22:58 39.13480 -76.82747 2771 ft 188 kts 352°
2026-05-07 22:58 39.14744 -76.82790 2660 ft 176 kts
2026-05-07 22:58 39.15897 -76.82308 2421 ft 173 kts 27°
2026-05-07 22:58 39.16872 -76.81401 2150 ft 173 kts 43°
2026-05-07 22:59 39.17590 -76.80194 1901 ft 172 kts 62°
2026-05-07 22:59 39.17953 -76.78729 1653 ft 171 kts 81°
2026-05-07 22:59 39.17957 -76.77222 1447 ft 162 kts 96°
2026-05-07 22:59 39.17868 -76.75877 1329 ft 145 kts 94°
2026-05-07 23:00 39.17799 -76.74590 1104 ft 143 kts 95°
2026-05-07 23:00 39.17731 -76.73327 902 ft 140 kts 95°
2026-05-07 23:00 39.17656 -76.72082 712 ft 140 kts 96°
2026-05-07 23:00 39.17589 -76.70840 533 ft 137 kts 97°
2026-05-07 23:01 39.17516 -76.69610 320 ft 138 kts 97°
2026-05-07 23:01 39.17442 -76.68388 145 ft 136 kts 96°
2026-05-07 23:01 39.17384 -76.67374 144 ft 78 kts 95°
2026-05-07 23:01 39.17355 -76.66878 146 ft 46 kts 95°
2026-05-07 23:02 39.17362 -76.66607 145 ft 19 kts 39°
2026-05-07 23:02 39.17454 -76.66666 146 ft 17 kts 273°
2026-05-07 23:02 39.17468 -76.66814 146 ft 14 kts 299°
2026-05-07 23:02 39.17540 -76.66794 147 ft 11 kts 39°
2026-05-07 23:03 39.17617 -76.66775 147 ft 11 kts
2026-05-07 23:03 39.17679 -76.66798 148 ft 8 kts 326°
2026-05-07 23:03 39.17724 -76.66844 148 ft 8 kts 303°
2026-05-07 23:03 39.17715 -76.66900 148 ft 5 kts 230°
2026-05-07 23:04 39.17705 -76.66915 147 ft 0 kts 234°